TimeCST,TemperatureF,Dew PointF,Humidity,Sea Level PressureIn,VisibilityMPH,Wind Direction,Wind SpeedMPH,Gust SpeedMPH,PrecipitationIn,Events,Conditions,WindDirDegrees,DateUTC
12:01 AM,19.4,14.0,80,30.24,10.0,ENE,4.6,-,N/A,,Overcast,60,2013-01-10 06:01:00
1:01 AM,19.4,14.0,80,30.24,10.0,East,1.2,-,N/A,,Mostly Cloudy,90,2013-01-10 07:01:00
1:21 AM,19.4,14.0,80,30.24,10.0,ESE,2.3,-,N/A,,Scattered Clouds,120,2013-01-10 07:21:00
1:41 AM,17.6,14.0,86,30.26,10.0,SSE,3.5,-,N/A,,Clear,160,2013-01-10 07:41:00
2:01 AM,17.6,14.0,86,30.26,10.0,SSE,4.6,-,N/A,,Clear,150,2013-01-10 08:01:00
2:21 AM,19.4,15.8,86,30.26,10.0,SE,3.5,-,N/A,,Clear,130,2013-01-10 08:21:00
2:41 AM,19.4,15.8,86,30.25,10.0,ESE,3.5,-,N/A,,Clear,120,2013-01-10 08:41:00
3:01 AM,19.4,15.8,86,30.25,10.0,South,4.6,-,N/A,,Clear,170,2013-01-10 09:01:00
3:21 AM,19.4,15.8,86,30.25,10.0,SSE,5.8,-,N/A,,Clear,150,2013-01-10 09:21:00
3:41 AM,19.4,15.8,86,30.25,10.0,SSE,5.8,-,N/A,,Clear,160,2013-01-10 09:41:00
4:01 AM,19.4,17.6,93,30.24,10.0,SSE,5.8,-,N/A,,Mostly Cloudy,160,2013-01-10 10:01:00
4:21 AM,21.2,17.6,86,30.25,10.0,South,8.1,-,N/A,,Overcast,170,2013-01-10 10:21:00
5:01 AM,23.0,19.4,86,30.23,10.0,SSE,5.8,-,N/A,,Clear,150,2013-01-10 11:01:00
5:21 AM,23.0,19.4,86,30.23,10.0,SSE,4.6,-,N/A,,Clear,160,2013-01-10 11:21:00
5:41 AM,23.0,19.4,86,30.21,10.0,SSE,4.6,-,N/A,,Clear,150,2013-01-10 11:41:00
6:01 AM,21.2,17.6,86,30.21,10.0,SSE,3.5,-,N/A,,Clear,160,2013-01-10 12:01:00
6:41 AM,24.8,17.6,74,30.21,10.0,SSE,4.6,16.1,N/A,,Clear,160,2013-01-10 12:41:00
7:01 AM,23.0,19.4,86,30.20,10.0,SSE,4.6,-,N/A,,Clear,160,2013-01-10 13:01:00
7:21 AM,24.8,19.4,80,30.20,10.0,South,8.1,-,N/A,,Clear,190,2013-01-10 13:21:00
7:41 AM,24.8,19.4,80,30.20,10.0,SSE,6.9,-,N/A,,Clear,150,2013-01-10 13:41:00
8:01 AM,24.8,19.4,80,30.20,10.0,South,5.8,-,N/A,,Clear,170,2013-01-10 14:01:00
8:21 AM,24.8,19.4,80,30.19,10.0,SSE,6.9,-,N/A,,Clear,150,2013-01-10 14:21:00
9:21 AM,28.4,19.4,69,30.17,10.0,SSE,4.6,-,N/A,,Clear,160,2013-01-10 15:21:00
9:41 AM,30.2,19.4,64,30.17,10.0,SSE,5.8,-,N/A,,Clear,160,2013-01-10 15:41:00
10:01 AM,32.0,19.4,60,30.16,10.0,South,6.9,-,N/A,,Clear,180,2013-01-10 16:01:00
10:21 AM,33.8,19.4,56,30.16,10.0,South,9.2,-,N/A,,Clear,170,2013-01-10 16:21:00
10:41 AM,33.8,19.4,56,30.15,10.0,SSE,6.9,-,N/A,,Clear,160,2013-01-10 16:41:00
11:01 AM,35.6,19.4,52,30.15,10.0,South,11.5,17.3,N/A,,Clear,190,2013-01-10 17:01:00
11:41 AM,35.6,19.4,52,30.13,10.0,South,6.9,-,N/A,,Clear,180,2013-01-10 17:41:00
12:01 PM,37.4,17.6,45,30.12,10.0,SSW,10.4,17.3,N/A,,Clear,200,2013-01-10 18:01:00
12:21 PM,37.4,17.6,45,30.10,10.0,South,10.4,18.4,N/A,,Clear,180,2013-01-10 18:21:00
12:41 PM,37.4,19.4,48,30.10,10.0,SSE,10.4,17.3,N/A,,Clear,160,2013-01-10 18:41:00
1:01 PM,35.6,19.4,52,30.09,10.0,South,9.2,-,N/A,,Clear,180,2013-01-10 19:01:00
1:21 PM,35.6,21.2,56,30.08,10.0,SSE,4.6,-,N/A,,Clear,160,2013-01-10 19:21:00
1:41 PM,35.6,19.4,52,30.08,10.0,SSE,10.4,-,N/A,,Clear,160,2013-01-10 19:41:00
2:01 PM,35.6,19.4,52,30.08,10.0,South,8.1,16.1,N/A,,Clear,170,2013-01-10 20:01:00
2:21 PM,33.8,19.4,56,30.07,10.0,South,6.9,-,N/A,,Clear,170,2013-01-10 20:21:00
2:41 PM,33.8,17.6,52,30.06,10.0,South,5.8,-,N/A,,Clear,170,2013-01-10 20:41:00
3:01 PM,33.8,17.6,52,30.05,10.0,SSE,5.8,-,N/A,,Clear,150,2013-01-10 21:01:00
3:21 PM,33.8,17.6,52,30.06,10.0,SSE,5.8,-,N/A,,Clear,160,2013-01-10 21:21:00
3:41 PM,33.8,17.6,52,30.06,10.0,SSE,6.9,-,N/A,,Clear,160,2013-01-10 21:41:00
4:01 PM,33.8,17.6,52,30.06,10.0,SSE,5.8,-,N/A,,Clear,160,2013-01-10 22:01:00
4:21 PM,32.0,17.6,55,30.05,10.0,SSE,8.1,-,N/A,,Clear,160,2013-01-10 22:21:00
4:41 PM,33.8,17.6,52,30.05,10.0,SSE,5.8,-,N/A,,Clear,160,2013-01-10 22:41:00
5:01 PM,32.0,17.6,55,30.04,10.0,SSE,6.9,-,N/A,,Clear,150,2013-01-10 23:01:00
5:41 PM,32.0,17.6,55,30.02,10.0,SSE,5.8,-,N/A,,Clear,150,2013-01-10 23:41:00
6:01 PM,32.0,15.8,51,30.01,10.0,SE,4.6,-,N/A,,Clear,140,2013-01-11 00:01:00
6:21 PM,33.8,15.8,48,29.98,10.0,SE,4.6,-,N/A,,Clear,140,2013-01-11 00:21:00
6:41 PM,33.8,15.8,48,29.97,10.0,SE,5.8,-,N/A,,Clear,140,2013-01-11 00:41:00
7:01 PM,33.8,15.8,48,29.96,10.0,SE,5.8,-,N/A,,Clear,130,2013-01-11 01:01:00
7:21 PM,33.8,15.8,48,29.94,10.0,ESE,4.6,-,N/A,,Clear,120,2013-01-11 01:21:00
7:41 PM,33.8,15.8,48,29.94,10.0,SE,5.8,-,N/A,,Clear,140,2013-01-11 01:41:00
8:21 PM,33.8,15.8,48,29.91,10.0,SE,4.6,-,N/A,,Clear,140,2013-01-11 02:21:00
8:41 PM,33.8,15.8,48,29.90,10.0,SE,6.9,-,N/A,,Clear,130,2013-01-11 02:41:00
9:21 PM,35.6,14.0,41,29.88,10.0,SE,6.9,-,N/A,,Scattered Clouds,130,2013-01-11 03:21:00
10:01 PM,33.8,17.6,52,29.85,10.0,SE,5.8,-,N/A,,Scattered Clouds,130,2013-01-11 04:01:00
10:21 PM,33.8,19.4,56,29.83,10.0,ESE,5.8,-,N/A,,Mostly Cloudy,110,2013-01-11 04:21:00
10:41 PM,33.8,19.4,56,29.82,10.0,ESE,4.6,-,N/A,,Mostly Cloudy,110,2013-01-11 04:41:00
11:40 PM,32.0,24.8,75,29.79,7.0,SE,4.6,-,N/A,,Overcast,130,2013-01-11 05:40:00
11:55 PM,30.2,26.6,86,29.78,4.0,SE,5.8,-,N/A,,Overcast,130,2013-01-11 05:55:00